Tracking 19709 objects as of 20-Jun-2019
HD Live streaming from Space Station
objects crossing your sky now

COSMOS 614

Track COSMOS 614 now!
10-day predictions
COSMOS 614 is classified as:


NORAD ID: 6965
Int'l Code: 1973-098A
Perigee: 751.7 km
Apogee: 786.3 km
Inclination: 74.1 °
Period: 100.1 minutes
Semi major axis: 7139 km
RCS: 2.1152 m2 (large)
Launch date: December 4, 1973
Source: Commonwealth of Independent States (former USSR) (CIS)
Launch site: PLESETSK MISSILE AND SPACE COMPLEX (PKMTR)
aabbcc
Your satellite tracking list
Your tracking list is empty




NASA's NSSDC Master Catalog

Two Line Element Set (TLE):
1  6965U 73098A   19170.13940990  .00000014  00000-0  13037-4 0  9999
2  6965  74.0580  65.6063 0024185 274.0396  85.7994 14.38985421387026
Source of the keplerian elements: AFSPC